2023/01/30 00:00:00,113.7,-3.0
2023/01/30 00:10:00,113.7,-3.2
2023/01/30 00:20:00,113.6,-3.1
2023/01/30 00:30:00,113.6,-3.0
2023/01/30 00:40:00,113.6,-3.1
2023/01/30 00:50:00,113.6,-3.1
2023/01/30 01:00:00,113.5,-3.0
2023/01/30 01:10:00,113.5,-3.3
2023/01/30 01:20:00,113.4,-3.5
2023/01/30 01:30:00,113.3,-3.4
2023/01/30 01:40:00,113.3,-3.4
2023/01/30 01:50:00,113.3,-3.8
2023/01/30 02:00:00,113.3,-3.0
2023/01/30 02:10:00,113.3,-4.3
2023/01/30 02:20:00,113.2,-4.4
2023/01/30 02:30:00,113.1,-4.3
2023/01/30 02:40:00,113.1,-4.7
2023/01/30 02:50:00,113.1,-4.8
2023/01/30 03:00:00,113.1,-4.8
2023/01/30 03:10:00,113.1,-4.9
2023/01/30 03:20:00,112.9,-4.9
2023/01/30 03:30:00,112.8,-4.7
2023/01/30 03:40:00,112.8,-4.8
2023/01/30 03:50:00,112.8,-4.8
2023/01/30 04:00:00,112.9,-4.8
2023/01/30 04:10:00,112.7,-4.6
2023/01/30 04:20:00,112.7,-4.7
2023/01/30 04:30:00,112.6,-4.6
2023/01/30 04:40:00,112.6,-4.2
2023/01/30 04:50:00,112.7,-4.2
2023/01/30 05:00:00,112.7,-4.1
2023/01/30 05:10:00,112.8,-4.0
2023/01/30 05:20:00,112.9,-3.9
2023/01/30 05:30:00,112.9,-3.8
2023/01/30 05:40:00,113.2,-3.8
2023/01/30 05:50:00,113.6,-3.5
2023/01/30 06:00:00,113.8,-3.5
2023/01/30 06:10:00,114.1,-3.5
2023/01/30 06:20:00,114.1,-3.2
2023/01/30 06:30:00,114.0,-3.3
2023/01/30 06:40:00,114.1,-3.4
2023/01/30 06:50:00,114.1,-3.1
2023/01/30 07:00:00,114.0,-3.0
2023/01/30 07:10:00,114.0,-3.0
2023/01/30 07:20:00,114.0,-3.2
2023/01/30 07:30:00,113.8,-2.8
2023/01/30 07:40:00,113.8,-2.8
2023/01/30 07:50:00,114.0,-2.5
2023/01/30 08:00:00,114.3,-2.5
2023/01/30 08:10:00,114.6,-2.4
2023/01/30 08:20:00,114.9,-2.3
2023/01/30 08:30:00,115.4,-2.1
2023/01/30 08:40:00,116.1,-2.1
2023/01/30 08:50:00,116.9,-1.9
2023/01/30 09:00:00,117.9,-1.8
2023/01/30 09:10:00,118.0,-1.7
2023/01/30 09:20:00,118.2,-1.5
2023/01/30 09:30:00,118.4,-1.6
2023/01/30 09:40:00,118.5,-1.1
2023/01/30 09:50:00,118.6,-1.2
2023/01/30 10:00:00,118.9,-1.1
2023/01/30 10:10:00,119.1,-0.4
2023/01/30 10:20:00,119.5,-0.4
2023/01/30 10:30:00,119.6,-1.1
2023/01/30 10:40:00,119.7,-0.6
2023/01/30 10:50:00,120.0,-1.0
2023/01/30 11:00:00,120.3,-0.4
2023/01/30 11:10:00,120.3,-0.4
2023/01/30 11:20:00,120.6,-0.6
2023/01/30 11:30:00,120.9,-0.5
2023/01/30 11:40:00,121.1,-0.4
2023/01/30 11:50:00,121.8,-0.7
2023/01/30 12:00:00,122.6,-0.6
2023/01/30 12:10:00,123.0,-0.4
2023/01/30 12:20:00,123.5,-0.4
2023/01/30 12:30:00,123.7,-0.3
2023/01/30 12:40:00,124.3, 0.5
2023/01/30 12:50:00,124.5,-0.5
2023/01/30 13:00:00,124.7,-0.8
2023/01/30 13:10:00,125.2,-0.4
2023/01/30 13:20:00,125.7,-0.5
2023/01/30 13:30:00,126.0,-0.5
2023/01/30 13:40:00,126.6, 0.7
2023/01/30 13:50:00,126.8, 0.4
2023/01/30 14:00:00,126.6,-0.1
2023/01/30 14:10:00,126.5, 0.5
2023/01/30 14:20:00,126.5,-0.4
2023/01/30 14:30:00,126.5, 0.4
2023/01/30 14:40:00,126.4,-0.2
2023/01/30 14:50:00,126.3, 0.2
2023/01/30 15:00:00,126.3, 0.6
2023/01/30 15:10:00,126.3, 0.4
2023/01/30 15:20:00,126.0, 0.3
2023/01/30 15:30:00,125.6, 0.2
2023/01/30 15:40:00,125.4,-0.4
2023/01/30 15:50:00,125.3,-0.4
2023/01/30 16:00:00,125.4,-0.7
2023/01/30 16:10:00,126.0,-0.8
2023/01/30 16:20:00,126.1,-0.9
2023/01/30 16:30:00,126.4,-0.9
2023/01/30 16:40:00,126.8,-1.1
2023/01/30 16:50:00,127.5,-1.1
2023/01/30 17:00:00,127.4,-1.0
2023/01/30 17:10:00,127.2,-1.0
2023/01/30 17:20:00,127.2,-1.1
2023/01/30 17:30:00,127.1,-1.2
2023/01/30 17:40:00,127.0,-1.4
2023/01/30 17:50:00,127.0,-1.2
2023/01/30 18:00:00,127.3,-1.2
2023/01/30 18:10:00,127.9,-1.4
2023/01/30 18:20:00,128.0,-1.5
2023/01/30 18:30:00,128.1,-1.4
2023/01/30 18:40:00,128.3,-1.2
2023/01/30 18:50:00,128.3,-1.4
2023/01/30 19:00:00,128.3,-1.7
2023/01/30 19:10:00,128.3,-1.7
2023/01/30 19:20:00,128.3,-1.5
2023/01/30 19:30:00,128.3,-1.7
2023/01/30 19:40:00,128.3,-1.8
2023/01/30 19:50:00,128.2,-1.7
2023/01/30 20:00:00,128.1,-2.0
2023/01/30 20:10:00,128.0,-2.1
2023/01/30 20:20:00,127.9,-2.0
2023/01/30 20:30:00,127.8,-2.0
2023/01/30 20:40:00,127.8,-1.7
2023/01/30 20:50:00,128.1,-2.3
2023/01/30 21:00:00,128.2,-1.9
2023/01/30 21:10:00,128.1,-2.1
2023/01/30 21:20:00,127.9,-2.1
2023/01/30 21:30:00,127.8,-2.0
2023/01/30 21:40:00,127.6,-1.9
2023/01/30 21:50:00,127.6,-2.1
2023/01/30 22:00:00,127.6,-2.1
2023/01/30 22:10:00,127.5,-1.8
2023/01/30 22:20:00,127.6,-2.0
2023/01/30 22:30:00,128.1,-1.8
2023/01/30 22:40:00,127.8,-2.0
2023/01/30 22:50:00,127.6,-1.8
2023/01/30 23:00:00,127.6,-2.1
2023/01/30 23:10:00,127.5,-2.1
2023/01/30 23:20:00,127.4,-2.1
2023/01/30 23:30:00,127.5,-2.1
2023/01/30 23:40:00,127.4,-1.9
2023/01/30 23:50:00,127.2,-2.2
